Home > Weather > Columbus > Past weeks

Flag for U.S.A. Weather for the Past 2 Weeks in Columbus, Georgia, U.S.A.

Now
37 °F

Clear.


Feels Like: 33 °F
Forecast: 26 / 62 °F
Wind: 5 mph from West

Location: Columbus Metropolitan Airport

Current Time: Feb 10, 2016 at 9:58:32 PM

Latest Report: Feb 10, 2016 at 8:51 PM


Visibility: 10 mi

Pressure: 30.19 "Hg

Humidity: 34%

Dew point: 11 °F

Location of ColumbusLocation

Historic Weather in Columbus — Graph

°F

Columbus Temperature Yesterday

Maximum temperature yesterday: 42 °F (at 3:51 PM)
Minimum temperature yesterday: 31 °F (at 11:51 PM)
Average temperature yesterday: 38 °F

High & Low Weather Summary for the Past Weeks

 TemperatureHumidityPressure
High73 °F (Feb 2, 1:51 PM)100% (Feb 1, 11:51 AM)30.43 "Hg (Feb 1, 11:51 AM)
Low25 °F (Feb 10, 6:51 AM)17% (Feb 5, 2:51 PM)29.79 "Hg (Feb 8, 3:51 PM)
Average49 °F64%30.06 "Hg
* Reported Jan 26 7:51 PM — Feb 10 7:51 PM, Columbus, Weather by CustomWeather, © 2016

Note: Actual official high and low records may vary slightly from our data, if they occured in-between our weather recording intervals... More about our weather records

Advertising

Columbus Weather History for the Previous 24 Hours

 ConditionsComfort  
Time TempWeatherWind HumidityBarometerVisibility
7:51 PM
Wed, Feb 10
38 °FClear.6 mph31%30.18 "Hg10 mi
6:51 PM41 °FClear.7 mph27%30.19 "Hg10 mi
5:51 PM43 °FSunny.15 mph24%30.17 "Hg10 mi
4:51 PM44 °FSunny.16 mph23%30.17 "Hg10 mi
3:51 PM44 °FSunny.13 mph23%30.16 "Hg10 mi
2:51 PM43 °FSunny.18 mph24%30.16 "Hg10 mi
1:51 PM41 °FSunny.14 mph28%30.18 "Hg10 mi
12:51 PM38 °FSunny.13 mph31%30.20 "Hg10 mi
11:51 AM36 °FSunny.17 mph35%30.23 "Hg10 mi
10:51 AM34 °FSunny.15 mph40%30.24 "Hg10 mi
9:51 AM30 °FSunny.16 mph45%30.24 "Hg10 mi
8:51 AM28 °FSunny.10 mph53%30.23 "Hg10 mi
7:51 AM25 °FSunny.8 mph66%30.20 "Hg10 mi
6:51 AM25 °FClear.12 mph66%30.18 "Hg10 mi
5:51 AM26 °FClear.10 mph63%30.15 "Hg10 mi
4:51 AM27 °FPassing clouds.8 mph63%30.14 "Hg10 mi
3:51 AM27 °FClear.9 mph66%30.12 "Hg10 mi
2:51 AM28 °FClear.12 mph64%30.11 "Hg10 mi
1:51 AM29 °FClear.6 mph69%30.11 "Hg10 mi
12:51 AM30 °FClear.3 mph66%30.09 "Hg10 mi
11:51 PM
Tue, Feb 9
31 °FClear.6 mph61%30.08 "Hg10 mi
10:51 PM32 °FClear.3 mph59%30.07 "Hg10 mi
9:51 PM34 °FClear.7 mph52%30.06 "Hg10 mi
Weather by CustomWeather, © 2016

See weather overviewHow to use our weather pages